千帆星座-36 (QIANFAN-36)

导读

QIANFAN-36 是中国北斗卫星导航系统的重要组成部分,于2024年成功发射。该卫星主要用于提供高精度定位、导航和授时服务,增强北斗系统在全球范围内的覆盖与稳定性。QIANFAN-36 采用先进技术和国产化设备,提升了系统的自主可控能力,为交通运输、农业、通信、应急救援等多个领域提供关键支持,进一步推动北斗系统在国际上的应用与发展。

Basic Information
目录编号:
61569
目录名称:
QIANFAN-36
国际标识:
2024-185T
轨道中心:
EARTH
卫星名称:
千帆星座-36
卫星全名:
千帆星座-36 (QIANFAN-36)
卫星状态:
在轨 (已飞行651 天)
发射日期:
2024-10-15 UTC
国别 :
中国 (CN)
星等 :
--
Orbit Information
数据来源 国际轨道数据 AOE轨道数据
星历时间 2026-07-27T21:31:05+0800
13小时前
查看轨道信息
2026-07-25T05:00:00+0800
3天前
查看轨道信息
半长轴 7429.71km 7429.712km
偏心率 0.0008318 0.0008235
轨道倾角 88.976° 88.977°
近地点辐角 99.786° 106.125°
升交点赤经 57.409° 57.689°
平近点角 260.423° 102.413°
近地点 1045.392km 1045.456km
远地点 1057.754km 1057.694km
周期 106.223分钟 106.223分钟
每日圈数 13.556419 13.556414
Detailed Information
卫星平台:
36
覆盖范围:
全球
运营商:
上海垣信卫星科技有限公司
运营商所在国:
中国
使用方式:
暂无
Satellite Introduction
千帆星座,也被称为“G60星链”计划,是中国版“星链”的重要组成部分,旨在打造一个由1.4万多颗低轨宽频多媒体卫星构成的庞大星座。千帆星座计划由上海垣信卫星科技有限公司负责实施,于2023年启动建设。该项目是我国第二个低轨卫星大星座,旨在通过构建庞大的卫星网络,为全球用户提供高质量的通信和宽带互联网服务。
2D Orbit Map
3D Orbit Map
Orbit Altitude Analysis Chart
Orbit Inclination Analysis Chart
Orbit Comprehensive Analysis Chart
View Comprehensive Chart